Вернуться в каталог

FENGYUN 1C DEB

АктивенPO
NORAD 33733·DEBRIS·🇨🇳 China

Запущен May 10, 1999 с Taiyuan Satellite Launch Center

Loading…

Ближайшие Пролёты (ближайшие 24 часа)

TLE

СвежийSource: Space-Track

Эпоха: Sep 13, 2026, 05:32 UTC

1 33733U 99025DHW 26256.23090421  .00004705  00000-0  16155-2 0  9992
2 33733  99.0980   0.3701 0074448  92.4802 298.3400 14.35033711943807

Отслеживайте FENGYUN 1C DEB в реальном времени с AllMySat

Download on the App Store